User: anonymous   Login
Location: Unspecified
(0.0000°N, 0.0000°E)
Time: 08:57:28
(UTC+00:00)
Language:

TIANWANG 1A (TW-1A) - Orbit

View from above orbital plane
View from above orbital plane
View from above satellite
View from above satellite

Ground track
Ground track

The orbit data is extracted from the following two-line orbital elements,

1 40928U 15051D   21340.90949168  .00011520  00000-0  21545-3 0  9990
2 40928  97.0631   1.8338 0009898  32.2337  88.3369 15.48820796348358
Epoch (UTC): 06 December 2021 21:49:40
Eccentricity: 0.0009898
inclination: 97.0631°
perigee height: 413 km
apogee height: 427 km
right ascension of ascending node: 1.8338°
argument of perigee: 32.2337°
revolutions per day: 15.48820796
mean anomaly at epoch: 88.3369°
orbit number at epoch: 34835

The dashed part of the orbit path shows where the satellite is in the earth's shadow,  

DLR